Location: Waco, TX
(31.5480°N, 97.1670°W)
Time: 00:53:00
(UTC-06:00)

ISS - Pass Details

Date: 16 January 2018
Orbit: 402 x 407 km, 51.6° (Epoch: 21 January)

Event Time Altitude Azimuth Distance (km) Brightness Sun altitude
Rises 06:50:38 0° 307° (NW) 2,321 - -8.3°
Reaches altitude 10° 06:52:47 10° 299° (WNW) 1,460 - -7.9°
Exits shadow 06:52:48 10° 299° (WNW) 1,452 -1.7 -7.9°
Maximum altitude 06:55:52 38° 229° (SW) 628 -3.1 -7.2°
Drops below altitude 10° 06:58:55 10° 159° (SSE) 1,454 -0.4 -6.6°
Sets 07:01:04 0° 151° (SSE) 2,310 0.9 -6.2°
